This demonstration page uses our WeatherBlox Daily Observations layout. Learn more.

Left ArrowRight Arrow

Hourly Observations for January 18, 2017

Temp ( °F °C ) Dew Point ( °F °C ) Humidity (%) Winds ( mph kmh ) Pressure ( in mb ) Visibility ( mi km ) Precip ( " mm )
12:58 am 00:58 Clear with Mist and Fog 26 -3.1 26 -3.1 100 100 SSE 5 7 30.16 1021 6 10 0.00 0.00
1:58 am 01:58 Clear with Mist and Fog 22 -5.4 22 -5.4 100 100 ENE 3 6 30.13 1020 6 10 0.00 0.00
2:25 am 02:25 Clear with Mist and Fog 25 -4 25 -4 100 100 E 3 6 30.15 1021 3 4 0.00 0.00
2:31 am 02:31 Clear with Mist and Fog 23 -5 23 -5 100 100 NE 3 6 30.18 1022 3 5 0.00 0.00
2:58 am 02:58 Clear with Mist and Fog 22 -5.3 22 -5.3 100 100 ESE 3 6 30.13 1020 5 8 0.00 0.00
3:25 am 03:25 Clear with Mist and Fog 21 -6 21 -6 100 100 ESE 3 6 30.18 1022 3 4 0.00 0.00
3:37 am 03:37 Clear with Mist and Fog 23 -5 23 -5 100 100 SE 5 7 30.18 1022 3 5 0.00 0.00
3:58 am 03:58 Clear 25 -3.7 25 -3.7 100 100 ESE 3 6 30.12 1020 7 11 0.00 0.00
4:58 am 04:58 Clear 22 -5.3 22 -5.3 100 100 E 3 6 30.10 1019 10 16 0.00 0.00
5:58 am 05:58 Clear 21 -6.1 21 -6.1 100 100 ENE 3 6 30.10 1019 10 16 0.00 0.00
6:58 am 06:58 Clear 22 -5.4 22 -5.4 100 100 E 3 6 30.09 1019 10 16 0.00 0.00
7:58 am 07:58 Sunny 23 -5 23 -5 100 100 SE 5 7 30.09 1019 10 16 0.00 0.00
8:58 am 08:58 Sunny 28 -2 28 -2 100 100 ESE 5 7 30.09 1019 10 16 0.00 0.00
9:58 am 09:58 Sunny 32 0.1 32 0.1 100 100 ESE 7 11 30.09 1019 10 16 0.00 0.00
10:58 am 10:58 Sunny 37 2.6 37 2.6 100 100 SE 7 11 30.07 1018 10 16 0.00 0.00
11:58 am 11:58 Sunny 40 4.6 40 4.2 97 97 SE 6 9 30.04 1017 10 16 0.00 0.00
12:58 pm 12:58 Sunny 46 7.6 43 6.1 90 90 SSE 13 20 30.01 1016 10 16 0.00 0.00
1:58 pm 13:58 Sunny 47 8.3 44 6.5 89 89 SSE 13 20 29.98 1015 10 16 0.00 0.00
2:58 pm 14:58 Sunny 49 9.7 44 6.7 82 82 S 10 17 29.96 1014 10 16 0.00 0.00
3:58 pm 15:58 Sunny 49 9.6 45 7 84 84 S 10 17 29.96 1014 10 16 0.00 0.00
4:58 pm 16:58 undefined N/A N/A N/A S 9 15 N/A N/A 0.00 0.00
5:58 pm 17:58 Clear 43 5.9 39 4 88 88 SSE 7 11 29.94 1014 10 16 0.00 0.00
6:58 pm 18:58 Clear 41 5 41 4.9 99 99 SE 10 17 29.94 1014 10 16 0.00 0.00
7:58 pm 19:58 Clear 40 4.4 40 4.3 99 99 SE 6 9 29.94 1014 10 16 0.00 0.00
8:58 pm 20:58 Clear 40 4.3 39 4.1 99 99 SE 9 15 29.93 1014 10 16 0.00 0.00
9:58 pm 21:58 Clear 38 3.6 38 3.4 99 99 ESE 10 17 29.93 1014 10 16 0.00 0.00
10:58 pm 22:58 Clear 36 2.3 36 2.3 100 100 ESE 7 11 29.91 1013 10 16 0.00 0.00
11:58 pm 23:58 Clear 35 1.9 35 1.9 100 100 SE 9 15 29.90 1013 10 16 0.00 0.00

Powered by AerisWeather